BREEZE-M DEB, 38640

Orbit data source: Space-Track

BREEZE-M DEB, 38640 is space debris in HEO originally from a launch on Fri, 14 Mar 2008 UTC launched from the Tyuratam Missile And Space Complex (TTMTR). Debris objects in space refer to the collection of defunct objects orbiting the Earth. Examples of debris include non-operational satellites, rocket bodies, and fragments generated from explosions, collisions, or faulty payload assembly.

Loading next visibility...
Identifier
38640, 2008-011CP
Orbit
HEO
Country
Flag of CISCIS
Related business
Manufacturer
Unknown
Mission
Spacecraft
Bus & Motor
Unknown
Mass
Unknown
Launch date (UTC)
2008-03-14 (18 years ago)
Launch vehicle
Unknown
Launch site
Tyuratam Missile And Space Complex (TTMTR)
Object type
Payload
Rocket body
Debris
Shape & HBR
Unknown shape, 0.3 m
Radar Cross Section
Medium (>0.1 m² and <1 m²)

Expand to show TLE details & history
Last TLE update: 1 week ago

TLE from 1 week ago
0 BREEZE-M DEB
1 38640U 08011CP  26164.37136706  .00001389  00000-0  84174-1 0  9999
2 38640  48.7980  31.1850 6371104 233.0834 347.7531  3.01855938167402
Epoch: 2026-06-13T08:54Z
TLE epoch observation values (Epoch: 2026-06-13T08:54:46.113Z)
Latitude
6.22245°
Longitude
170.3914°
Altitude
2,810.878 km
Speed
8.189 km/s
True Right ascension
13h 43m 05s
True Declination
6° 11' 38"
Sunlit
Object was in daylight at epoch
Visualization orbit readout
Latitude
Unknown
Longitude
Unknown
Altitude
Unknown
Speed
Unknown
Apparent Right ascension
Unknown
Apparent Declination
Unknown
Sunlit
N/A
Visualization observer readout
Local Sidereal Time
00:39:49
Azimuth
Unknown
Elevation
Unknown
Doppler factor
Unknown
Orbital elements
Apogee altitude
26,732.103 km
Perigee altitude
961.235 km
Semi-major axis
20,224.806 km
Eccentricity
0.63711
Inclination
48.798°
RAAN
31.185°
Arg. of periapsis
233.0834°
True anomaly
298.8227°
Mean anomaly
347.7531°
Eccentric anomaly
328.89495°
Mean motion
0.7546 °/min
Orbital period
477.07 mins
BSTAR
0.084174
Loading maneuver chart data...
Computing Atmospheric mass density...
Loading historical data...
Loading historical data...
Loading historical data...
Loading historical data...
Loading historical data...
Loading historical data...
Loading historical data...

Documentation

Showing up to 5 results
|